Location: Grandview
(34.8900°N, 117.1058°W)
Time: 18:37:18
(UTC-08:00)

Envisat - Pass Details

Date: 10 October 2017
Orbit: 764 x 766 km, 98.2° (Epoch: 13 December)

Event Time Altitude Azimuth Distance (km) Brightness Sun altitude
Exits shadow 19:47:57 22° 45° (NE) 1,650 4.4 -18.9°
Drops below altitude 10° 19:50:38 10° 16° (NNE) 2,308 5.4 -19.5°
Sets 19:53:19 0° 3° (N) 3,238 6.3 -20.0°
